Theta_e
309 309 310 312 313 314 316 317 320 320 320 320 321 320 319 320 320 320 322 322 324 328 330 331 330 330 330 329 327 325 324 324 324 325 325 325 325 325 324 324 324 323 323 323
309 310 310 310 309 310 310 312 315 317 317 317 317 318 319 319 319 319 320 321 323 324 327 329 330 330 330 329 329 328 326 325 324 324 324 324 324 324 324 323 323 322 322 321
311 309 310 313 312 311 311 310 312 315 316 316 319 319 320 319 318 318 319 321 322 323 324 325 328 329 330 329 329 329 327 326 325 324 324 324 323 323 322 323 322 319 318 319
313 311 311 309 309 310 311 314 313 311 314 320 319 319 319 319 319 319 320 322 322 322 322 322 323 327 329 329 329 328 328 327 326 325 324 324 323 323 318 318 316 313 309 308
314 312 310 310 312 317 313 313 321 321 320 320 320 322 323 320 320 322 322 322 321 320 320 321 322 324 328 329 328 328 327 327 326 325 325 320 317 315 311 312 305 301 297 296
312 312 313 316 312 311 314 318 317 317 319 320 320 323 324 322 323 323 322 322 322 321 320 321 324 324 326 327 327 326 326 323 321 317 316 310 307 304 301 299 294 292 289 289
313 312 311 311 310 310 317 320 315 315 315 317 319 318 319 318 320 322 321 320 320 321 321 322 323 324 325 324 315 310 310 309 306 305 303 300 297 294 292 289 288 287 286 286
311 313 313 310 314 315 315 313 314 315 314 314 316 317 317 316 320 318 316 317 319 321 322 322 322 317 310 306 303 302 300 299 297 296 294 294 292 290 289 288 286 285 285 284
312 312 311 313 313 312 312 312 313 313 312 314 314 316 317 315 319 314 313 313 313 314 313 311 309 305 301 298 297 296 294 293 293 292 291 291 289 288 288 287 287 286 285 284
311 311 311 311 310 310 310 311 312 311 313 312 312 316 317 317 316 312 308 307 306 306 304 304 302 300 298 296 294 293 292 290 290 289 288 288 288 288 288 287 286 286 285 285
310 310 310 310 310 310 310 311 311 312 310 312 315 318 315 310 305 302 301 300 300 300 300 300 298 297 295 294 292 291 290 289 288 286 285 284 284 285 285 287 287 287 286 285
312 310 311 311 310 311 311 311 311 309 309 315 312 311 306 302 299 295 294 295 297 297 298 299 299 297 296 295 293 291 290 288 286 285 284 283 283 282 282 282 282 282 281 280
310 310 310 310 311 311 310 311 308 307 309 310 303 301 298 296 292 290 288 288 288 288 288 290 291 291 294 294 292 290 288 287 286 285 284 283 282 281 280 279 278 278 277 277
309 309 309 309 310 310 310 310 305 303 302 299 298 295 294 293 290 289 288 287 287 285 284 284 284 285 286 286 287 287 287 287 287 286 286 285 283 282 281 280 278 276 275 275
309 310 310 310 310 310 310 307 307 304 302 297 294 292 290 288 287 285 285 284 283 282 282 282 282 282 284 284 284 285 285 285 284 284 284 284 283 283 282 281 279 278 277 275
308 308 308 309 309 309 308 307 306 304 301 296 291 288 286 283 282 281 281 282 282 281 281 281 281 281 282 282 281 281 281 281 281 282 281 281 280 280 280 278 277 275 273 273
305 306 305 305 305 305 305 306 304 303 300 294 288 285 283 281 280 279 279 279 279 279 279 280 280 280 281 281 280 280 279 279 279 279 279 279 278 278 277 276 275 272 270 270
300 300 301 301 300 300 301 303 300 298 295 289 285 282 281 280 279 278 277 277 278 278 278 278 279 279 279 279 279 279 278 278 277 277 277 277 276 276 275 275 274 273 271 269
296 295 294 294 293 295 294 292 290 287 285 284 281 280 279 278 278 278 278 278 278 278 277 277 277 277 277 277 277 276 276 275 275 274 274 274 274 274 273 273 272 272 271 271
291 290 289 288 287 288 286 285 284 283 281 280 279 278 278 277 276 276 276 276 276 276 275 275 274 274 274 275 275 275 274 274 274 274 273 273 272 271 270 270 271 271 270 270
286 286 285 284 283 282 282 281 281 280 279 278 276 276 276 275 275 275 275 274 274 274 273 273 273 273 273 274 274 274 273 273 273 272 272 272 272 271 271 270 270 270 269 269
285 284 282 281 281 279 279 278 277 276 275 274 274 274 273 273 273 273 273 273 273 272 272 271 271 271 271 272 272 272 272 272 272 271 271 271 271 270 269 269 269 268 268 267
283 282 281 280 279 278 277 277 276 276 276 276 276 276 276 274 273 273 272 271 270 269 269 269 269 270 270 271 271 270 270 270 270 270 269 269 269 268 268 267 267 267 266 266
281 280 279 278 278 277 277 275 275 274 273 273 273 272 272 270 269 269 269 269 268 268 268 268 268 268 269 269 270 269 269 269 268 267 267 267 267 267 266 265 265 266 265 264
280 279 279 278 278 277 275 275 274 273 273 272 271 271 270 270 269 269 268 267 267 267 267 266 267 268 268 268 268 268 268 268 268 267 267 266 266 266 266 265 264 263 263 263
280 280 279 278 277 276 276 275 274 273 272 271 270 269 268 268 268 268 267 267 267 267 268 267 267 267 267 267 267 267 266 266 266 265 265 265 264 264 264 263 263 263 263 262
277 277 277 276 276 276 275 274 274 272 271 271 270 269 268 268 267 267 267 267 267 267 267 267 266 266 266 266 266 266 266 264 264 264 264 264 263 264 262 262 262 261 261 260
Wind_Speed
13 14 14 14 13 14 16 14 14 13 15 16 16 14 12 14 14 14 15 7 9 13 14 16 22 26 27 28 29 29 29 28 28 27 26 26 26 26 26 27 27 26 25 25
12 14 15 18 20 20 21 20 21 18 19 18 17 19 19 20 20 19 16 12 9 11 13 15 18 23 25 27 28 30 29 28 27 27 26 26 25 24 23 22 21 21 21 22
10 10 9 10 17 19 20 22 20 20 18 15 15 19 18 18 20 20 19 17 15 11 10 12 18 21 22 24 25 29 29 29 28 27 26 25 24 22 21 20 19 13 13 9
5 3 6 10 8 9 14 16 14 20 14 12 15 18 19 22 19 20 13 16 9 10 11 16 15 20 21 22 24 25 25 25 26 26 25 23 22 18 16 15 12 10 9 8
4 8 12 16 6 7 7 11 14 10 10 10 11 17 18 19 19 14 12 15 16 20 15 19 15 18 21 22 22 22 22 22 21 21 21 17 20 18 17 18 18 17 17 17
6 7 5 7 6 6 11 6 5 9 8 9 13 11 11 21 24 22 15 16 16 18 17 13 10 14 20 22 22 19 13 11 15 18 21 22 23 23 23 25 28 27 28 25
12 7 8 13 12 8 8 3 10 11 13 14 9 10 17 21 22 18 18 20 21 17 10 7 9 13 14 13 18 18 25 24 23 25 28 27 29 28 30 32 34 33 34 31
8 5 10 8 3 4 7 10 13 13 14 16 18 13 15 16 20 15 15 16 15 9 3 2 8 20 18 20 21 28 31 31 32 31 28 30 32 31 32 33 32 28 31 28
9 9 11 4 7 9 9 12 10 12 16 16 17 21 11 14 11 7 10 11 8 7 10 12 16 24 24 22 28 33 36 32 32 34 32 28 27 26 28 26 26 24 24 23
9 9 12 11 11 10 12 9 9 13 13 15 20 20 8 11 8 6 6 8 7 9 11 14 16 21 28 25 30 35 35 33 33 35 34 31 30 25 23 23 22 20 23 19
11 13 11 12 7 7 10 11 13 11 13 15 17 11 2 0 2 6 9 10 6 8 13 16 20 23 26 27 32 33 32 31 30 34 36 33 33 30 27 22 19 24 21 20
7 8 8 12 13 13 11 11 10 10 12 9 10 7 5 5 5 9 13 14 9 9 11 16 19 20 23 24 30 34 31 27 25 33 34 28 35 39 36 33 32 30 28 28
9 10 12 12 12 12 8 10 8 8 7 6 5 8 7 5 9 13 20 23 19 18 18 19 22 23 19 21 27 30 31 28 27 31 27 26 29 29 30 33 34 31 29 27
11 13 14 13 13 15 11 5 2 5 7 6 7 13 12 9 14 14 14 20 26 26 26 25 29 33 26 29 34 34 32 28 28 26 24 25 24 22 20 21 21 22 21 21
8 10 10 12 12 9 6 3 3 1 3 6 8 9 11 11 11 15 17 21 25 28 24 29 28 32 30 32 33 29 29 29 27 27 26 25 23 21 20 20 18 17 14 15
12 11 12 10 12 10 9 6 6 3 4 7 8 11 12 16 18 19 21 19 21 21 24 29 30 27 33 34 33 31 31 29 26 25 23 23 21 20 19 19 17 15 13 10
12 12 14 12 12 13 14 11 8 3 4 8 11 14 15 16 17 21 21 25 28 27 27 29 26 26 27 25 26 26 26 24 23 24 23 21 20 19 17 16 15 14 13 12
10 10 12 12 11 11 11 9 4 2 6 13 16 17 14 15 11 20 21 26 28 30 27 23 22 23 23 22 22 22 21 21 21 21 20 19 19 18 17 15 14 13 11 11
11 10 10 9 10 8 5 9 13 15 16 17 18 17 18 20 18 20 22 25 23 23 20 20 21 22 21 20 21 21 22 22 22 21 20 19 19 17 16 15 13 11 10 9
10 10 8 8 9 7 6 10 14 15 17 22 24 23 21 19 19 21 24 25 21 21 19 19 20 21 21 20 21 21 22 21 20 19 18 18 17 16 16 14 12 9 8 7
8 8 6 7 9 12 13 13 15 17 19 20 24 23 24 23 23 19 20 19 18 19 20 18 18 18 19 20 21 21 20 19 19 18 16 16 15 14 13 10 9 8 6 6
7 6 7 9 11 13 15 17 20 23 25 26 27 27 28 25 28 29 23 20 16 14 17 19 18 19 20 20 20 19 18 17 16 16 15 13 13 11 10 9 8 7 6 6
7 7 9 9 12 15 17 18 19 21 22 23 23 23 21 20 17 18 16 16 18 16 20 21 19 20 19 18 18 17 17 15 15 14 13 11 10 9 8 8 7 5 5 5
10 12 13 14 15 17 15 20 23 24 25 25 23 21 22 24 25 23 22 19 20 20 21 19 17 17 16 16 16 15 14 13 12 12 11 10 9 8 7 7 5 4 4 5
11 12 13 14 15 15 19 22 24 23 24 24 22 21 19 17 20 19 19 19 18 19 20 19 17 14 14 13 13 13 11 11 10 9 8 8 7 7 5 4 4 3 4 5
11 12 14 14 15 15 16 17 18 17 18 20 20 19 21 21 21 20 18 17 17 16 15 12 11 11 12 12 12 11 9 8 7 8 7 6 5 4 3 3 3 4 5 6
14 13 14 16 15 15 16 17 18 17 17 19 21 17 17 17 18 17 16 15 14 13 11 10 10 11 10 10 9 8 6 6 6 5 5 3 3 2 3 3 4 5 6 7
Wind_Direction
262 284 277 267 261 256 250 249 256 264 279 291 299 298 295 299 286 282 286 269 247 211 208 206 203 202 203 201 196 198 201 203 202 203 207 209 209 209 212 215 220 225 229 235
251 264 272 276 271 268 264 260 259 256 260 269 263 268 275 277 285 286 277 273 251 237 211 209 208 206 203 204 197 193 200 203 201 199 202 206 208 208 210 215 219 225 231 234
256 254 268 271 256 256 263 263 256 250 259 276 288 290 278 259 262 268 273 272 239 241 233 228 219 209 206 203 200 196 200 200 200 199 202 202 204 206 209 211 210 190 196 209
273 288 246 241 289 304 297 297 262 254 273 323 304 291 274 271 264 259 275 303 290 278 254 260 234 215 207 199 198 197 199 200 197 196 199 201 201 195 160 143 148 130 115 112
239 231 270 299 271 348 310 278 7 354 338 324 316 309 284 278 292 313 305 297 276 281 284 285 214 215 199 192 195 194 196 192 191 191 189 158 135 133 134 138 121 113 109 106
200 244 236 142 88 21 324 247 32 355 314 320 320 302 303 341 330 321 332 317 310 300 288 261 215 202 196 183 172 184 195 148 143 141 135 132 137 136 133 128 119 115 102 99
226 243 271 297 315 326 254 44 341 333 338 333 313 312 305 314 314 333 330 310 308 295 280 234 184 181 185 133 102 107 118 122 117 123 125 128 123 122 120 112 107 100 94 90
233 255 259 245 171 276 352 316 329 328 331 324 321 308 309 306 309 327 321 317 311 313 342 115 117 110 107 96 107 108 108 105 103 103 102 110 112 110 110 108 101 97 94 86
197 208 247 195 269 284 307 303 317 336 317 325 322 308 303 307 309 332 340 338 8 50 66 87 107 118 111 112 110 105 99 93 94 96 97 96 96 100 103 104 104 105 98 93
238 248 269 271 317 303 310 308 334 316 332 318 312 308 294 296 341 346 26 12 32 80 84 87 100 110 112 116 114 108 103 102 100 95 93 89 88 85 89 98 104 106 98 100
258 266 277 281 276 296 320 339 314 342 327 318 316 331 75 82 14 36 36 35 38 86 96 98 106 106 110 115 110 103 103 104 102 99 93 89 83 85 84 93 103 97 100 100
254 308 309 302 327 327 314 310 345 335 331 359 21 24 48 40 20 58 57 32 43 66 89 103 103 106 114 116 114 111 105 101 104 103 98 100 96 86 81 89 91 92 93 97
290 306 310 315 303 303 325 333 348 342 350 6 41 64 60 64 70 83 72 57 37 37 47 62 74 72 91 105 109 104 104 108 105 98 105 102 96 100 98 82 80 81 82 82
302 311 298 307 318 323 321 355 66 43 52 54 73 88 84 76 64 66 75 96 90 66 54 60 67 66 74 89 93 96 97 99 99 103 107 109 113 113 107 101 95 86 79 79
320 358 328 307 307 311 37 331 288 59 108 86 75 86 96 87 79 73 72 83 86 86 81 80 66 72 83 82 83 84 87 85 88 90 91 93 95 96 97 100 101 99 91 71
325 316 310 342 334 337 331 310 293 254 143 119 107 96 91 92 90 78 74 79 87 81 81 82 81 84 95 94 89 83 83 87 92 94 95 95 94 91 87 85 83 76 67 56
328 324 331 320 326 322 313 310 315 296 141 131 124 124 114 103 101 92 85 85 81 78 80 82 84 87 89 90 91 92 90 90 91 90 91 94 96 95 95 97 97 89 76 61
330 324 325 327 320 316 316 300 329 49 109 115 118 116 115 106 105 100 95 92 87 81 78 82 89 90 90 91 93 95 97 95 91 90 92 92 94 96 97 95 90 91 89 72
344 336 337 333 338 338 26 61 77 96 106 116 110 105 101 100 102 99 98 90 84 83 80 86 88 89 90 93 96 98 97 97 95 94 94 94 91 91 90 89 86 80 74 65
349 353 359 17 25 43 71 87 96 99 105 111 109 106 98 85 85 85 85 81 85 94 98 94 92 90 90 90 93 93 94 95 96 95 95 95 94 93 90 86 86 78 66 55
2 9 25 48 60 64 76 90 103 106 106 106 105 102 101 98 90 84 83 85 83 92 93 88 89 90 89 89 89 91 93 95 94 97 98 97 96 92 90 87 84 74 62 50
17 39 57 69 78 80 84 93 100 100 100 99 97 97 93 88 87 83 80 85 84 86 89 86 84 86 88 88 90 92 94 96 100 100 99 97 95 97 95 86 74 61 42 31
50 66 77 87 94 98 98 99 102 106 108 107 106 105 101 99 98 102 94 93 95 88 88 86 86 88 89 91 94 96 97 97 94 94 95 97 94 89 81 75 63 47 29 10
71 79 87 96 102 100 94 90 91 89 89 88 87 89 97 96 85 83 88 92 96 93 90 88 86 84 88 90 90 93 97 98 97 95 94 90 85 78 70 63 53 31 6 347
86 94 99 101 98 98 102 102 96 92 91 88 85 82 85 88 98 104 103 100 97 97 95 89 87 88 93 99 99 99 98 96 93 92 86 80 72 66 59 40 22 352 338 324
81 81 86 91 100 104 103 102 100 99 99 94 88 88 91 95 99 100 101 101 98 91 89 91 94 93 89 86 85 85 85 85 85 83 76 67 60 54 34 6 346 329 315 311
88 90 90 89 87 95 100 103 103 99 98 100 99 96 98 100 101 102 101 98 96 96 96 92 86 86 86 84 84 85 85 81 86 73 64 63 51 26 353 328 310 305 308 311